Regional Weather Roundup
Issued by NWS Little Rock, AR

Home | Current Version | Previous Version | Text Only | Print | Product List | Glossary Off
Versions: 1 2 3 4 5 6 7 8 9 10 11 12 13 14 15 16 17 18 19 20 21 22 23 24 25 26 27 28 29 30 31 32 33 34 35 36 37 38 39 40 41 42 43 44 45 46 47 48 49 50

000
ASUS44 KLZK 031705
RWRLZK

WEATHER ROUNDUP FOR ARKANSAS
NATIONAL WEATHER SERVICE LITTLE ROCK AR
1200 PM CDT THU SEP 03 2015

NOTE: "FAIR" INDICATES FEW OR NO CLOUDS BELOW 12,000 FEET WITH NO
SIGNIFICANT WEATHER AND/OR OBSTRUCTIONS TO VISIBILITY.

ARZ001-003-010-029-031800-
NORTHWEST ARKANSAS

CITY           SKY/WX    TMP DP  RH WIND       PRES   REMARKS
FAYETTEVILLE   SUNNY     84  69  60 S5        30.05S HX  88
FORT SMITH     SUNNY     87  70  56 NE8       30.00F HX  92
HARRISON       SUNNY     85  67  54 SE6       30.06F HX  87
BENTONVILLE    SUNNY     84  66  54 SW6       30.06F HX  86
ROGERS         SUNNY     86  69  56 SW8       30.06S HX  90
SILOAM SPGS    SUNNY     86  66  51 S8        30.03S HX  88
$$

ARZ004-005-016-031800-
NORTH CENTRAL ARKANSAS

CITY           SKY/WX    TMP DP  RH WIND       PRES   REMARKS
BATESVILLE     SUNNY     88  72  58 SE5       30.03F HX  94
FLIPPIN        SUNNY     88  64  45 SE5       30.02F HX  89
MTN HOME       SUNNY     86  66  51 VRB3      30.03F HX  88
$$

ARZ040-041-031800-
WEST CENTRAL ARKANSAS

CITY           SKY/WX    TMP DP  RH WIND       PRES   REMARKS
MENA           MOSUNNY   88  70  55 CALM      30.03F HX  92
MOUNT IDA      SUNNY     89  67  47 VRB3      30.01F HX  92
$$

ARZ009-017-025-026-028-031800-
NORTHEAST ARKANSAS

CITY           SKY/WX    TMP DP  RH WIND       PRES   REMARKS
JONESBORO      SUNNY     88  69  53 VRB3      30.01F HX  92
NEWPORT        SUNNY     90  68  48 VRB3      30.03F HX  94
WALNUT RIDGE   MOSUNNY   88  70  55 CALM      30.01F HX  92
BLYTHEVILLE    MOSUNNY   91  74  57 CALM      30.02F HX 100
$$

ARZ022-023-033-042-044-031800-
CENTRAL ARKANSAS

CITY           SKY/WX    TMP DP  RH WIND       PRES   REMARKS
LITTLE ROCK    MOSUNNY   92  69  47 VRB3      30.01F HX  97
N LITTLE ROCK  MOSUNNY   88  72  60 SW5       30.01F HX  94
JACKSONVILLE   SUNNY     87  69  55 E5        30.01F HX  92
SEARCY         SUNNY     89  71  55 CALM      30.03F HX  95
HOT SPRINGS    SUNNY     87  68  52 VRB3      30.02F HX  90
RUSSELLVILLE   SUNNY     86  70  58 VRB3      30.02S HX  90
$$

ARZ036-031800-
EAST ARKANSAS

CITY           SKY/WX    TMP DP  RH WIND       PRES   REMARKS
WEST MEMPHIS   MOSUNNY   87  72  60 CALM      30.01F HX  93
$$

ARZ050-053-066-070-073-031800-
SOUTHWEST ARKANSAS

CITY           SKY/WX    TMP DP  RH WIND       PRES   REMARKS
ARKADELPHIA    FAIR      90  71  53 NW3       30.01F HX  96
CAMDEN         SUNNY     91  66  43 S3        30.00F HX  94
TEXARKANA      SUNNY     89  66  46 VRB6      30.00F HX  91
EL DORADO      SUNNY     89  68  49 VRB3      30.01F HX  93
DE QUEEN       SUNNY     88  70  55 SW5       29.99F HX  93
$$

ARZ056-057-069-031800-
SOUTHEAST ARKANSAS

CITY           SKY/WX    TMP DP  RH WIND       PRES   REMARKS
PINE BLUFF     SUNNY     89  72  56 VRB5      30.01F HX  96
STUTTGART      SUNNY     88  68  51 N5        30.02F HX  91
MONTICELLO     SUNNY     90  71  53 VRB6      30.01S HX  96

$$





USA.gov is the U.S. government's official web portal to all federal, state and local government web resources and services.